{"data":{"norad_id":60313,"epoch":"2026-09-20T05:17:14.028864Z","epoch_age_seconds":209706,"freshness":"STALE","line1":"1 60313U 24133N   26263.22030126 -.00001696  00000+0 -91432-5 0  9998","line2":"2 60313  53.1590 267.5228 0001233  80.6949 279.4208 15.69696829124285","mean_motion":15.69696829,"eccentricity":0.0001233,"inclination_deg":53.159,"raan_deg":267.5228,"arg_perigee_deg":80.6949,"mean_anomaly_deg":279.4208,"bstar":-9.1432e-6,"rev_number":12428,"period_min":91.737459960174,"perigee_km":358.93365779605,"apogee_km":360.59522429141,"semimajor_km":6737.9014410437,"source":"CELESTRAK","updated_at":"2026-09-22T09:00:49.216470Z"}}